COSMOS 1275 DEB, 12782

Orbit data source: Space-Track

COSMOS 1275 DEB, 12782 is space debris in LEO originally from a launch on Thu, 04 Jun 1981 UTC launched from the Plesetsk Missile And Space Complex (PKMTR). Debris objects in space refer to the collection of defunct objects orbiting the Earth. Examples of debris include non-operational satellites, rocket bodies, and fragments generated from explosions, collisions, or faulty payload assembly.

Loading next visibility...
Identifier
12782, 1981-053DY
Orbit
LEO
Country
Flag of CISCIS
Related business
Manufacturer
Unknown
Mission
Spacecraft
Bus & Motor
Unknown
Mass
Unknown
Launch date (UTC)
1981-06-04 (45 years ago)
Launch vehicle
Unknown
Launch site
Plesetsk Missile And Space Complex (PKMTR)
Object type
Payload
Rocket body
Debris
Shape & HBR
Unknown shape, 0.1 m
Radar Cross Section
Small (<0.1 m²)

Expand to show TLE details & history
Last TLE update: 17 hours ago

TLE from 17 hours ago
0 COSMOS 1275 DEB
1 12782U 81053DY  26048.42371952  .00000563  00000-0  57048-3 0  9991
2 12782  82.9998 195.2559 0076534 200.6514 214.7268 13.74182208216854
Epoch: 2026-02-17T10:10Z
TLE epoch observation values (Epoch: 2026-02-17T10:10:09.366Z)
Latitude
54.37608°
Longitude
-94.87163°
Altitude
1,040.014 km
Speed
7.314 km/s
True Right ascension
13h 40m 17s
True Declination
54° 13' 09"
Sunlit
Object was in daylight at epoch
Visualization orbit readout
Latitude
Unknown
Longitude
Unknown
Altitude
Unknown
Speed
Unknown
Apparent Right ascension
Unknown
Apparent Declination
Unknown
Sunlit
N/A
Visualization observer readout
Local Sidereal Time
05:33:17
Azimuth
Unknown
Elevation
Unknown
Doppler factor
Unknown
Orbital elements
Apogee altitude
1,038.07 km
Perigee altitude
925.414 km
Semi-major axis
7,359.879 km
Eccentricity
0.00765
Inclination
82.9998°
RAAN
195.2559°
Arg. of periapsis
200.6514°
True anomaly
214.2311°
Mean anomaly
214.7268°
Eccentric anomaly
214.47856°
Mean motion
3.43746 °/min
Orbital period
104.73 mins
BSTAR
0.00057048
Loading maneuver chart data...
Computing Atmospheric mass density...
Loading historical data...
Loading historical data...
Loading historical data...
Loading historical data...
Loading historical data...
Loading historical data...
Loading historical data...

Documentation

Showing up to 5 results
|